Weather History for Massena, NY

Change the Weather History Date:

Tuesday, November 20, 2012

  Actual Average Record
Temperature  
Mean Temperature 32 °F 34 °F  
Max Temperature 43 °F 42 °F 69 °F (1985)
Min Temperature 21 °F 26 °F 6 °F (1967)
Degree Days  
Heating Degree Days 33 31  
Month to date heating degree days 605 552  
Since 1 July heating degree days 1250 1433  
Moisture  
Dew Point 26 °F    
Average Humidity 84    
Maximum Humidity 100    
Minimum Humidity 67    
Precipitation  
Precipitation 0.00 in 0.10 in 0.82 in (1988)
Month to date precipitation 0.49 2.08  
Year to date precipitation 26.38 31.58  
Sea Level Pressure  
Sea Level Pressure 30.24 in    
Wind  
Wind Speed 1 mph (NE)    
Max Wind Speed 7 mph    
Max Gust Speed 9 mph    
Visibility 4 miles    
Events Fog    
T = Trace of Precipitation, MM = Missing Value Source: NWS Daily Summary

Daily Weather History Graph

Daily Weather History Graph

Search for Another Location

Airport:

Trip Planner

Search our weather history database for the weather conditions in past years. The results will help you decide how hot, cold, wet, or windy it might be!

Date:

Astronomy

Nov. 20, 2012 Rise Set
Actual Time 7:04 AM EST 4:25 PM EST
Civil Twilight 6:31 AM EST 4:57 PM EST
Nautical Twilight 5:55 AM EST 5:33 PM EST
Astronomical Twilight 5:21 AM EST 6:08 PM EST
Moon 12:28 PM EST (11/20) No Moon Set
Length of Visible Light 10h 26m
Length of Day
9h 21m
Waxing Crescent, 51% of the Moon is Illuminated
Nov 20
Waxing Crescent
Nov 28
Full
Dec 6
Last Quarter
Dec 13
New
Dec 20
First Quarter

Hourly Weather History & Observations

Time (EST) Temp. Windchill Dew Point Humidity Pressure Visibility Wind Dir Wind Speed Gust Speed Precip Events Conditions
12:53 AM 21.0 °F - 18.0 °F 88% 30.29 in 8.0 mi Calm Calm - N/A   Clear
1:53 AM 21.9 °F - 19.0 °F 89% 30.28 in 9.0 mi Calm Calm - N/A   Clear
2:53 AM 21.9 °F - 18.0 °F 85% 30.28 in 10.0 mi Calm Calm - N/A   Clear
3:19 AM 21.2 °F - 17.6 °F 86% 30.26 in 9.0 mi Calm Calm - N/A   Scattered Clouds
3:28 AM 21.2 °F - 17.6 °F 86% 30.26 in 9.0 mi Calm Calm - N/A   Mostly Cloudy
3:53 AM 21.9 °F - 19.0 °F 89% 30.28 in 8.0 mi Calm Calm - N/A   Overcast
4:09 AM 23.0 °F - 19.4 °F 86% 30.25 in 1.0 mi Calm Calm - N/A   Overcast
4:16 AM 23.0 °F - 21.2 °F 93% 30.25 in 0.2 mi Calm Calm - N/A Fog Light Freezing Fog
4:53 AM 24.1 °F - 23.0 °F 96% 30.27 in 0.2 mi Calm Calm - N/A Fog Light Freezing Fog
5:53 AM 24.1 °F - 23.0 °F 96% 30.27 in 0.5 mi Calm Calm - N/A Fog Light Freezing Fog
6:07 AM 24.8 °F - 23.0 °F 93% 30.25 in 1.0 mi Calm Calm - N/A   Mist
6:19 AM 24.8 °F - 24.8 °F 100% 30.25 in 0.8 mi Calm Calm - N/A   Mist
6:26 AM 24.8 °F - 24.8 °F 100% 30.25 in 1.5 mi Calm Calm - N/A   Mostly Cloudy
6:29 AM 24.8 °F - 24.8 °F 100% 30.25 in 2.0 mi Calm Calm - N/A   Scattered Clouds
6:49 AM 24.8 °F - 23.0 °F 93% 30.24 in 4.0 mi Calm Calm - N/A   Clear
6:53 AM 25.0 °F - 23.0 °F 92% 30.27 in 4.0 mi Calm Calm - N/A   Clear
7:04 AM 24.8 °F - 24.8 °F 100% 30.25 in 4.0 mi Calm Calm - N/A   Scattered Clouds
7:13 AM 24.8 °F - 23.0 °F 93% 30.25 in 3.0 mi Calm Calm - N/A   Mostly Cloudy
7:22 AM 26.6 °F - 24.8 °F 93% 30.25 in 1.8 mi Calm Calm - N/A   Overcast
7:28 AM 26.6 °F - 24.8 °F 93% 30.25 in 0.8 mi Calm Calm - N/A   Overcast
7:53 AM 28.0 °F - 27.0 °F 96% 30.27 in 0.5 mi Calm Calm - N/A Fog Light Freezing Fog
8:53 AM 28.9 °F - 28.0 °F 96% 30.27 in 0.2 mi Calm Calm - N/A Fog Light Freezing Fog
9:14 AM 30.2 °F - 28.4 °F 93% 30.25 in 1.2 mi Calm Calm - N/A   Overcast
9:40 AM 30.2 °F 26.7 °F 30.2 °F 100% 30.25 in 1.2 mi East 3.5 mph - N/A   Overcast
9:53 AM 32.0 °F 28.7 °F 30.9 °F 96% 30.27 in 1.2 mi ENE 3.5 mph - N/A   Overcast
10:02 AM 32.0 °F 28.7 °F 30.2 °F 93% 30.24 in 1.5 mi ENE 3.5 mph - N/A   Overcast
10:22 AM 33.8 °F 30.8 °F 32.0 °F 93% 30.24 in 2.0 mi East 3.5 mph - N/A   Mostly Cloudy
10:34 AM 33.8 °F 29.6 °F 33.8 °F 100% 30.24 in 2.5 mi ENE 4.6 mph - N/A   Mostly Cloudy
10:42 AM 35.6 °F 32.8 °F 33.8 °F 93% 30.24 in 3.0 mi NE 3.5 mph - N/A   Mostly Cloudy
10:53 AM 36.0 °F - 33.1 °F 89% 30.26 in 4.0 mi Calm Calm - N/A   Mostly Cloudy
11:53 AM 39.0 °F 35.7 °F 33.1 °F 79% 30.23 in 4.0 mi NE 4.6 mph - N/A   Haze
12:53 PM 42.1 °F 39.2 °F 33.1 °F 70% 30.21 in 6.0 mi ENE 4.6 mph - N/A   Haze
1:53 PM 42.1 °F 38.4 °F 33.1 °F 70% 30.19 in 6.0 mi NNE 5.8 mph - N/A   Haze
2:53 PM 42.1 °F 39.2 °F 32.0 °F 67% 30.19 in 7.0 mi NNE 4.6 mph - N/A   Overcast
3:53 PM 39.9 °F 37.8 °F 32.0 °F 73% 30.20 in 8.0 mi NNE 3.5 mph - N/A   Partly Cloudy
4:53 PM 37.0 °F 34.5 °F 30.9 °F 79% 30.21 in 8.0 mi East 3.5 mph - N/A   Scattered Clouds
5:53 PM 32.0 °F - 28.0 °F 85% 30.22 in 7.0 mi Calm Calm - N/A   Clear
6:53 PM 32.0 °F 28.7 °F 28.0 °F 85% 30.22 in 6.0 mi NNE 3.5 mph - N/A   Scattered Clouds
7:53 PM 28.9 °F - 27.0 °F 92% 30.22 in 5.0 mi Calm Calm - N/A   Mostly Cloudy
8:53 PM 30.0 °F - 27.0 °F 88% 30.22 in 4.0 mi Calm Calm - N/A   Scattered Clouds
9:53 PM 28.9 °F - 26.1 °F 89% 30.22 in 4.0 mi Calm Calm - N/A   Clear
10:53 PM 27.0 °F - 24.1 °F 89% 30.22 in 4.0 mi Calm Calm - N/A   Clear
11:12 PM 24.8 °F - 23.0 °F 93% 30.19 in 1.8 mi Calm Calm - N/A   Clear
11:29 PM 26.6 °F - 24.8 °F 93% 30.19 in 1.2 mi Calm Calm - N/A   Partly Cloudy
11:37 PM 24.8 °F - 23.0 °F 93% 30.19 in 2.0 mi Calm Calm - N/A   Scattered Clouds
11:45 PM 24.8 °F - 23.0 °F 93% 30.19 in 4.0 mi Calm Calm - N/A   Partly Cloudy
11:53 PM 25.0 °F - 21.9 °F 88% 30.22 in 5.0 mi Calm Calm - N/A   Partly Cloudy